WetterOnline ( https://www.wetteronline.de )

Wetter aktuell München

Aktuelles Wetter: München/Stadt (535m)

6-stündlich | Neueste Meldungen
Ortszeit Temperatur Wetter
Fr, 02.12. 13:00 2.9° C leichter Regen
Fr, 02.12. 7:00 2.2° C bedeckt
Fr, 02.12. 1:00 2.5° C bedeckt
Do, 01.12. 19:00 2.7° C bedeckt
Do, 01.12. 13:00 3.0° C bedeckt
Do, 01.12. 7:00 1.6° C bedeckt
Do, 01.12. 1:00 1.3° C bedeckt
Mi, 30.11. 19:00 1.7° C bedeckt
Ortszeit Temperatur Wetter
Fr, 02.12. 14:30 2.7° C leichter Regen
Fr, 02.12. 14:20 2.7° C leichter Regen
Fr, 02.12. 14:10 2.7° C leichter Regen
Fr, 02.12. 14:00 2.8° C leichter Regen
Fr, 02.12. 13:50 2.8° C leichter Regen
Fr, 02.12. 13:40 2.8° C leichter Regen
Fr, 02.12. 13:30 2.8° C leichter Regen
Fr, 02.12. 13:00 2.9° C leichter Regen
Fr, 02.12. 12:30 2.9° C bedeckt
Fr, 02.12. 12:00 2.6° C Sprühregen
Fr, 02.12. 11:30 2.8° C leichter Regen
Ortszeit Relative Feuchte Sichtweite
Fr, 02.12. 13:00 82% 14 km
Fr, 02.12. 7:00 89% 6 km
Fr, 02.12. 1:00 85% 10 km
Do, 01.12. 19:00 82% 16 km
Do, 01.12. 13:00 79% 17 km
Do, 01.12. 7:00 88% 7 km
Do, 01.12. 1:00 87% 7 km
Mi, 30.11. 19:00 80% 18 km
Ortszeit Relative Feuchte Sichtweite
Fr, 02.12. 14:30 86% 8 km
Fr, 02.12. 14:20 86% -
Fr, 02.12. 14:10 85% -
Fr, 02.12. 14:00 85% 11 km
Fr, 02.12. 13:50 85% -
Fr, 02.12. 13:40 83% -
Fr, 02.12. 13:30 83% 11 km
Fr, 02.12. 13:00 82% 14 km
Fr, 02.12. 12:30 82% 15 km
Fr, 02.12. 12:00 83% 14 km
Fr, 02.12. 11:30 85% 9 km
Ortszeit Niederschlagsmenge Niederschlagsart
Fr, 02.12. 13:00 0.1 l/m2 in 6 Std. Regen
Fr, 02.12. 7:00 0.0 l/m2 in 12 Std. -
Fr, 02.12. 1:00 0.0 l/m2 in 6 Std. -
Do, 01.12. 19:00 0.0 l/m2 in 12 Std. -
Do, 01.12. 13:00 0.0 l/m2 in 6 Std. -
Do, 01.12. 7:00 0.0 l/m2 in 12 Std. -
Do, 01.12. 1:00 0.0 l/m2 in 6 Std. -
Mi, 30.11. 19:00 0.0 l/m2 in 12 Std. -
Ortszeit Niederschlagsmenge Niederschlagsart
Fr, 02.12. 14:30 0.1 l/m2 in 30 Min -
Fr, 02.12. 14:20 keine Meldung -
Fr, 02.12. 14:10 keine Meldung -
Fr, 02.12. 14:00 0.1 l/m2 in 1 Std. Regen
Fr, 02.12. 13:50 keine Meldung -
Fr, 02.12. 13:40 keine Meldung -
Fr, 02.12. 13:30 <0.05 l/m2 in 30 Min -
Fr, 02.12. 13:00 <0.05 l/m2 in 1 Std. Regen
Fr, 02.12. 12:30 <0.05 l/m2 in 30 Min Schnee
Fr, 02.12. 12:00 <0.05 l/m2 in 1 Std. Regen
Fr, 02.12. 11:30 <0.05 l/m2 in 30 Min -
Ortszeit Stärke Spitze Richtung
km/h Bft. km/h Grad Sektor
Fr, 02.12. 13:00 4 1 7 20° N
Fr, 02.12. 7:00 4 1 7 350° N
Fr, 02.12. 1:00 4 1 11 40° NO
Do, 01.12. 19:00 4 1 14 70° O
Do, 01.12. 13:00 6 1 11 60° NO
Do, 01.12. 7:00 4 1 14 40° NO
Do, 01.12. 1:00 7 2 18 50° NO
Mi, 30.11. 19:00 9 2 22 70° O
Ortszeit Stärke Spitze Richtung
km/h Bft. km/h Grad Sektor
Fr, 02.12. 14:30 4 1 7 80° O
Fr, 02.12. 14:20 4 1 - 80° O
Fr, 02.12. 14:10 4 1 - 90° O
Fr, 02.12. 14:00 4 1 7 30° NO
Fr, 02.12. 13:50 4 1 - 30° NO
Fr, 02.12. 13:40 4 1 - 30° NO
Fr, 02.12. 13:30 4 1 7 20° N
Fr, 02.12. 13:00 4 1 7 20° N
Fr, 02.12. 12:30 4 1 7 30° NO
Fr, 02.12. 12:00 4 1 7 10° N
Fr, 02.12. 11:30 4 1 7 50° NO
Ortszeit Untergrenze Bedeckung Gattung
total tief tief mittel hoch
Fr, 02.12. 13:00 390 m 8/8 8/8 - - -
Fr, 02.12. 7:00 330 m 8/8 8/8 - - -
Fr, 02.12. 1:00 450 m 8/8 8/8 - - -
Do, 01.12. 19:00 450 m 8/8 8/8 - - -
Do, 01.12. 13:00 480 m 8/8 8/8 - - -
Do, 01.12. 7:00 300 m 8/8 8/8 - - -
Do, 01.12. 1:00 180 m 8/8 8/8 - - -
Mi, 30.11. 19:00 720 m 8/8 8/8 - - -
Ortszeit Bedeckungsgrad in Achtel und Wolkenuntergrenze
Fr, 02.12. 14:30 1(240m) 5(750m)
Fr, 02.12. 14:20 1(240m) 1(570m) 5(750m)
Fr, 02.12. 14:10 5
Fr, 02.12. 14:00 2(330m) 7(810m)
Fr, 02.12. 13:50 2(330m) 7(810m)
Fr, 02.12. 13:40 7
Fr, 02.12. 13:30 6(330m) 7(510m) 8(810m)
Fr, 02.12. 13:00 3(390m) 7(840m) 8(990m)
Fr, 02.12. 12:30 4(450m) 8(1080m) 8(2100m)
Fr, 02.12. 12:00 1(240m) 7(630m) 8(930m)
Fr, 02.12. 11:30 3(480m) 8(780m)
Ortszeit Luftdruck NN (hPa) Tendenz (hPa in 3 Std.)
Fr, 02.12. 13:00 1019 - 0,9
Fr, 02.12. 7:00 1020 - 0,6
Fr, 02.12. 1:00 1022 - 0,8
Do, 01.12. 19:00 1022 + 0,1
Do, 01.12. 13:00 1022 - 0,8
Do, 01.12. 7:00 1023 0,0
Do, 01.12. 1:00 1024 - 0,1
Mi, 30.11. 19:00 1023 + 0,6
Ortszeit Luftdruck NN (hPa) Tendenz (hPa in 3 Std.)
Fr, 02.12. 14:30 1018 - 1,0
Fr, 02.12. 14:20 1018 keine Meldung
Fr, 02.12. 14:10 1018 keine Meldung
Fr, 02.12. 14:00 1019 - 1,1
Fr, 02.12. 13:50 1019 keine Meldung
Fr, 02.12. 13:40 1019 keine Meldung
Fr, 02.12. 13:30 1019 - 1,0
Fr, 02.12. 13:00 1019 - 0,9
Fr, 02.12. 12:30 1019 - 0,8
Fr, 02.12. 12:00 1019 - 0,6
Fr, 02.12. 11:30 1020 - 0,4
Ortszeit Schneehöhe (cm)
Fr, 02.12. 13:00 0
Fr, 02.12. 7:00 0
Fr, 02.12. 1:00 0
Do, 01.12. 19:00 0
Do, 01.12. 13:00 0
Do, 01.12. 7:00 0
Do, 01.12. 1:00 0
Mi, 30.11. 19:00 0
Ortszeit Schneehöhe (cm)
Fr, 02.12. 14:30 0
Fr, 02.12. 14:20 0
Fr, 02.12. 14:10 0
Fr, 02.12. 14:00 0
Fr, 02.12. 13:50 0
Fr, 02.12. 13:40 0
Fr, 02.12. 13:30 0
Fr, 02.12. 13:00 0
Fr, 02.12. 12:30 0
Fr, 02.12. 12:00 0
Fr, 02.12. 11:30 0
Link zu dieser Seite / Seite empfehlen

Das Wetter in ...